Content
SEND FEEDBACK

Daily
Averages
Monthly
Summary
Iran

QAZVIN, IRAN


Home > Middle East > Iran
Elevation: 1278 meters     Latitude: 36 15N     Longitude: 050 00E

WEATHER
 
SELECT A DAY
Number of Records: 49,801;   Date Range: 5/20/03 - 8/10/14
 
SHARE

PRINT THIS DATA

[ ← Previous Day ]
WEATHER ALMANAC - 31 JANUARY, 2013
[ Next Day → ]
[ °F ]   °C
Weather ElementAverageHighLow
Temperature4.3 °C8 °C (1:30 pm)1 °C (2:30 am)
Dewpoint0.1 °C2.2 °C (9:30 pm)-2 °C (2:30 am)
Humidity74.4 %100 % (9:30 pm)47 % (3:30 pm)
Barometer1010.8 hPa1015.2 hPa (9:30 am)1006.1 hPa (11:30 pm)
Wind Speed16.6 km/h44.4 km/h (8:30 pm)
Weather ElementAverage
Visibility7.7 km
Wind DirectionENE (81 °)

Weather ElementTotal
Precipitation---
Heating Degree Days13.8 (Base 18.3)
Averaged from 23 records on 31 January, 2013
WEATHER CONDITIONS BREAKOUT
WIND DIRECTION BREAKOUT
WEATHER BY HOUR - 31 JANUARY, 2013
[ °F ]   °C
Local TimeTemperatureDewpointHumidityBarometerVisibilityWind DirectionWind SpeedGust SpeedPrecipitationEventsConditions
2:30 AM1 °C-2 °C81 %1014.2 hPaCalmClear
3:30 AM1.7 °C-1.1 °C74 %1013.9 hPa9.7 kmCalmClear
5:30 AM1 °C-1 °C87 %1013.2 hPaCalmClear
6:30 AM1 °C-1 °C87 %1013.2 hPaCalmClear
7:30 AM1 °C-2 °C81 %1013.2 hPaVariable3.7 km/hClear
8:30 AM2 °C-1 °C81 %1013.2 hPaCalmClear
9:30 AM3.3 °C-1.1 °C65 %1015.2 hPa6.4 kmNE (40°)7.2 km/hHaze
9:30 AM4 °C-1 °C70 %1013.2 hPa6.9 kmNE (40°)7.4 km/h
10:30 AM5 °C0 °C70 %1013.2 hPa8 kmVariable3.7 km/h
11:30 AM7 °C0 °C61 %1012.2 hPa8 kmSE (130°)18.5 km/h
12:30 PM7 °C0 °C61 %1011.2 hPa8 kmSE (130°)22.2 km/h
1:30 PM8 °C-1 °C53 %1009.1 hPa6.9 kmSE (130°)25.9 km/h
2:30 PM8 °C0 °C57 %1008.1 hPa10 kmESE (120°)33.3 km/hMostly Cloudy
3:30 PM7.8 °C0 °C47 %1009.5 hPa9.7 kmSE (130°)25.3 km/hOvercast
3:30 PM8 °C0 °C57 %1008.1 hPa10 kmSE (130°)25.9 km/hOvercast
4:30 PM7 °C2 °C71 %1009.1 hPa8 kmESE (110°)33.3 km/hOvercast
5:30 PM6 °C2 °C76 %1009.1 hPa10 kmSE (140°)37 km/hOvercast
6:30 PM5 °C1 °C76 %1009.1 hPa6.9 kmSE (140°)37 km/hRainLight Rain Showers
7:30 PM5 °C1 °C76 %1009.1 hPa6.9 kmSE (130°)33.3 km/hRainLight Rain Showers
8:30 PM4 °C1 °C81 %1008.1 hPa5 kmSE (130°)44.4 km/hRainRain Showers
9:30 PM2.2 °C2.2 °C100 %1010.2 hPa6.4 km°3.5 km/hRainLight Rain
10:30 PM2 °C2 °C100 %1007.1 hPa5 kmEast (100°)7.4 km/hRainRain
11:30 PM2 °C2 °C100 %1006.1 hPa6.9 kmEast (100°)11.1 km/hRainLight Rain
Hourly data recorded from OIIK, located 0 kilometers away from Qazvin, Iran







STORIES FROM OUR PARTNERS